Regional Weather Roundup
Issued by NWS Wakefield, VA

Home | Current Version | Previous Version | Text Only | Print | Product List | Glossary Off
Versions: 1 2 3 4 5 6 7 8 9 10 11 12 13 14 15 16 17 18 19 20 21 22 23 24 25 26 27 28 29 30 31 32 33 34 35 36 37 38 39 40 41 42 43 44 45 46 47 48 49 50

000
ASUS41 KAKQ 311612
RWRAKQ

REGIONAL WEATHER ROUNDUP
NATIONAL WEATHER SERVICE WAKEFIELD VA
1200 PM EDT MON AUG 31 2015

Note: "fair" indicates few or no clouds below 12,000 feet with no
significant weather and/or obstructions to visibility. * = Denotes
station may not report precipitation (e.g., rain,snow,etc.),
thunder or fog.

VAZ042-051-052>054-056-311700-
NORTHERN VIRGINIA

CITY           SKY/WX    TMP DP  RH WIND       PRES   REMARKS
WASH NATIONAL  CLOUDY    83  63  50 W9        30.11S
DULLES         CLOUDY    82  62  50 VRB3      30.11S
FORT BELVOIR   CLOUDY    81  66  60 SW3       30.11S
QUANTICO       CLOUDY    79  69  71 S5        30.12S
FREDERICKSBRG* CLOUDY    82  68  62 SW5       30.11F
STAFFORD*      CLOUDY    78  67  68 W5        30.16S
WARRENTON      CLOUDY    80  70  72 S6        30.12S
CULPEPER*      CLOUDY    77  66  68 S5        30.12F
MANASSAS*      SUNNY     79  68  69 CALM      30.11F
LEESBURG*      CLOUDY    81  72  74 SW10      30.12S
WINCHESTER     CLOUDY    82  64  54 W5        30.12F
FRONT ROYAL*   FAIR      81  64  57 CALM      30.12S
LURAY*         FAIR      79  61  53 CALM      30.14S
$$

VAZ048-049-060>072-079>083-311700-
CENTRAL AND SOUTH CENTRAL VIRGINIA

CITY           SKY/WX    TMP DP  RH WIND       PRES   REMARKS
RICHMOND       CLOUDY    79  66  64 SW12      30.14R
CHESTERFIELD*  CLOUDY    77  61  57 W7        30.16R
PETERSBURG*    LGT RAIN  75  74  99 S6        30.16R
HANOVER        CLOUDY    80  68  66 S10       30.16R
TAPPAHANNOCK*  CLOUDY    78  65  63 CALM      30.13S
QUINTON*       PTSUNNY   74  68  80 SW5       30.13R
CHARLOTTSVILLE PTSUNNY   79  65  62 S3        30.13S
GORDONSVILLE*  FAIR      76  68  76 SW7       30.12F
ORANGE*        CLOUDY    77  68  73 S6        30.14S
LOUISA*        CLOUDY    75  66  73 SW7       30.13S
BUMPASS*       FAIR      76  68  76 S6        30.14R
FARMVILLE*     PTSUNNY   78  67  69 S8        30.13F
CREWE*         CLOUDY   N/A N/A N/A S7        30.15S
FORT PICKETT*  FAIR      76  69  78 S7        30.16S
CHASE CITY*    CLOUDY    77  73  86 E6        30.15F
CLARKSVILLE*   CLOUDY    72  68  88 E6        30.16S
SOUTH HILL*    CLOUDY    70  68  96 CALM      30.21S
LAWRENCEVILLE* CLOUDY    70  70 100 SE3       30.15S
EMPORIA*       RAIN      70  68  94 SE5       30.16S
$$

VAZ088>098-311700-
SOUTHEAST VIRGINIA

CITY           SKY/WX    TMP DP  RH WIND       PRES   REMARKS
NORFOLK        LGT RAIN  74  69  85 SW9       30.15R
VIRGINIA BEACH LGT RAIN  76  70  82 W9        30.15R
NORFOLK NAVAL  LGT RAIN  73  70  90 S6        30.16S FOG
WEST POINT*    CLOUDY    77  69  78 S5        30.15S
SALUDA*        CLOUDY    74  71  90 S6        30.12F
NEWPORT NEWS   LGT RAIN  77  68  73 SW9       30.13F
LANGLEY AFB    LGT RAIN  77  68  74 SW9       30.13S
FORT EUSTIS    LGT RAIN  75  73  94 S3        30.12S
WILLIAMSBURG*  CLOUDY    77  72  83 SW5       30.15S
HR EXEC AP*      N/A     72  70  94 SW5       30.17F
FRANKLIN*      RAIN      71  69  95 SE7       30.16S
WAKEFIELD      LGT RAIN  73  69  87 S5        30.15S FOG
$$

VAZ020-022-025-037-045-311700-
WEST CENTRAL AND SOUTHWEST VIRGINIA

CITY           SKY/WX    TMP DP  RH WIND       PRES   REMARKS
STAUNTON*      PTSUNNY   83  63  50 E3        30.17S
WAYNESBORO*    FAIR      83  61  47 SW3       30.15F
HOT SPRINGS VA PTSUNNY   74  60  61 E3        30.26S
LYNCHBURG      CLOUDY    77  63  61 S7        30.16F
DANVILLE       PTSUNNY   78  68  71 VRB3      30.14F
SOUTH BOSTON*  CLOUDY    74  69  82 SE3       30.15S
MARTINSVILLE   CLOUDY    77  65  66 CALM      30.18S
ROANOKE        MOSUNNY   80  61  52 S3        30.16F
BLACKSBURG     PTSUNNY   79  60  51 NE6       30.23R
DUBLIN*        CLOUDY    79  58  48 N5        30.21S
MARION*        CLOUDY    76  57  52 NW3       30.25S
HILLSVILLE*    PTSUNNY   72  60  67 N5        30.22S
RICHLANDS*     CLOUDY    72  27  18 CALM      30.25R
WISE*          MOSUNNY   75  61  60 NE9       30.25F
ABINGDON*      MOSUNNY   77  59  53 N5        30.21F
$$

MDZ021>025-VAZ099-100-311700-
SOUTHERN MARYLAND AND THE DELMARVA PENINSULA

CITY           SKY/WX    TMP DP  RH WIND       PRES   REMARKS
PATUXENT RIVER CLOUDY    82  66  58 SW7       30.11R
BAY BRIDGE APT   N/A     81  64  57 SW6       30.10S
LEONARDTOWN    NOT AVBL
DOVER          CLOUDY    85  71  62 SW8       30.08S
GEORGETOWN     PTSUNNY   85  65  51 SW10      30.10S
EASTON         SUNNY     84  68  58 W12       30.14R
CAMBRIDGE      CLOUDY    82  68  61 W5        30.11R
SALISBURY      CLOUDY    85  66  53 SW10      30.10S
OCEAN CITY     PTSUNNY   86  65  49 SW8       30.10S
WALLOPS ISLAND CLOUDY    84  66  54 W7        30.12S
ACCOMACK*      LGT RAIN  75  63  64 W6        30.12S
$$

NCZ012>017-030>032-311700-
NORTH CENTRAL AND EASTERN NORTH CAROLINA

CITY           SKY/WX    TMP DP  RH WIND       PRES   REMARKS
ROANOKE RAPIDS DRIZZLE   70  68  94 CALM      30.15F
RALEIGH        CLOUDY    72  67  84 NE6       30.14R
ELIZABETH CITY RAIN      75  71  87 NW7       30.15S FOG
AHOSKIE*       LGT RAIN  70  68  95 E3        30.16S
EDENTON*       LGT RAIN  72  69  91 N9        30.15F
CURRITUCK*     LGT RAIN  77  69  74 W5        30.17R
KILL DEVIL HLS CLOUDY    80  68  65 CALM      30.14R
MANTEO         CLOUDY    79  70  73 N3        30.14R
CAPE HATTERAS  CLOUDY    81  73  76 E7        30.13S
TARBORO*       RAIN      70  68  95 CALM      30.16S
GOLDSBORO      PTSUNNY   73  72  97 NE8       30.11F
WASHINGTON     RAIN      70  68  95 NE6       30.13F
GREENVILLE     HVY RAIN  70  70 100 N6        30.15S
NEW BERN       LGT RAIN  78  74  87 E5        30.12F
WILMINGTON     CLOUDY    77  74  90 CALM      30.10F
$$

VAZ048-311700-
ELSEWHERE

CITY           SKY/WX    TMP DP  RH WIND       PRES   REMARKS
HARRISBURG PA  PTSUNNY   83  70  64 CALM      30.08S
BALTIMORE      PTSUNNY   86  68  54 W8        30.09S
ANNAPOLIS      CLOUDY    84  67  56 VRB6      30.09S
ANDREWS AFB    CLOUDY    82  64  54 SW12      30.11R
PHILADELPHIA   PTSUNNY   87  67  51 SW6       30.07S
HENDERSON NC   RAIN      69  66  90 NE6       30.16S
GREENSBORO     CLOUDY    73  69  87 NE3       30.15S
ROCKY MOUNT    LGT RAIN  71  70  96 CALM      30.15S FOG
$$

VAZ100-311700-
MARINE

STATION/POSITION TIME  TEMP    WIND        PRES    WAVE   SWELL
                       AIR SEA DIR/SP/G            HT/PER HT/PER
                 (UTC) (F)     (DEG/KT/KT) (MB)    (FT/S) (FT/S)
15NM E FENWICK I 1450   78 78  220/ 14/ 16 1019.2    2/ 9   2/ 9
THOMAS POINT MD  1602   81 79  250/  9/ 10 1019.6
CHESAPEAKE LGHT  1500   78     240/ 10/ 11 1021.1R
64NM E OF VA BCH 1550   78 78  230/  4/  6 1019.9S   3/ 9   3/ 9
DIAMOND SHLS NC  1550   82 85  130/  8/  8 1020.2S   3/ 9   3/ 9
CAPE LOOKOUT NC  1600   79     130/ 10/ 12 1019.7R
$$


USA.gov is the U.S. government's official web portal to all federal, state and local government web resources and services.